[Iaude] MPEC A45: 2024 AV [a=0.95,e=0.11,i=1.2,H=26.5]
    mpec at marsden.cfa.harvard.edu 
    mpec at marsden.cfa.harvard.edu
       
    Fri Jan  5 06:37:45 EST 2024
    
    
  
M.P.E.C. 2024-A45                               Issued 2024 January 5, 11:36 UT
     The Minor Planet Electronic Circulars contain information on unusual
         minor planets, routine data on comets and natural satellites,
         and occasional editorial announcements.  They are published
    on behalf of Division F of the International Astronomical Union by the
          Minor Planet Center, Smithsonian Astrophysical Observatory,
                          Cambridge, MA 02138, U.S.A.
			  
             Prepared using the Tamkin Foundation Computer Network
                              MPC at CFA.HARVARD.EDU
            URL https://www.minorplanetcenter.net/    ISSN 1523-6714
                                    2024 AV                                     
Observations:
     K24A00V* C2024 01 03.33558005 18 40.809-07 36 36.07         21.06wXEA045F52
     K24A00V  C2024 01 03.34722305 18 38.354-07 35 30.38         20.65wXEA045F52
     K24A00V  C2024 01 03.35884805 18 35.901-07 34 24.77         21.22wXEA045F52
     K24A00V  C2024 01 03.37047505 18 33.438-07 33 18.84         21.00wXEA045F52
     K24A00V  C2024 01 03.54582905 17 59.567-07 16 39.19         21.45GVEA045F52
     K24A00V  C2024 01 03.54647305 17 59.471-07 16 35.45         20.85GVEA045F52
     K24A00V |C2024 01 04.10957005 17 06.980-06 22 24.00         20.6 GVEA045807
     K24A00V |C2024 01 04.11427005 17 06.080-06 21 58.90         20.8 GVEA045807
     K24A00V |C2024 01 05.10227005 15 20.430-04 56 44.00         20.8 GVEA045807
     K24A00V |C2024 01 05.10713305 15 19.580-04 56 19.60         21.1 GVEA045807
     K24A00V |C2024 01 05.11183005 15 18.760-04 55 56.50         21.0 GVEA045807
     K24A00V KC2024 01 05.14048405 15 17.01 -04 57 21.3          21.2 GVEA045H21
     K24A00V KC2024 01 05.14622005 15 16.05 -04 56 52.7          21.0 GVEA045H21
     K24A00V KC2024 01 05.15195405 15 15.10 -04 56 24.3                VEA045H21
     K24A00V KC2024 01 05.15730005 15 14.20 -04 55 57.4                VEA045H21
Observer details:
807 Cerro Tololo Observatory, La Serena.  Observers T. Linder, R. Holmes.
    0.61-m f/11 Ritchey-Chretien + CCD.
F52 Pan-STARRS 2, Haleakala.  Observers J. Herman, T. Lowe, P. Minguez, A.
    Schultz, I. Smith.  Measurers K. Chambers, T. de Boer, J. Fairlamb, H.
    Gao, M. Huber, C.-C. Lin, E. Magnier, Y. Ramanjooloo, R. Wainscoat, R.
    Weryk.  1.8-m Ritchey-Chretien + CCD.
H21 Astronomical Research Observatory, Westfield.  Observer R. Holmes.
    Measurers T. Linder, R. Holmes, L. Horn.  0.81-m f/4.0 astrograph + CCD.
Orbital elements:
2024 AV                                                  Earth MOID = 0.0115 AU
Epoch 2023 Sept. 13.0 TT = JDT 2460200.5                Veres                   
M   0.62145              (2000.0)            P               Q                  
n   1.05843070     Peri.  156.57965     +0.87806847     +0.47853103             
a   0.9535887      Node   174.82958     -0.44240579     +0.81332505             
e   0.1120862      Incl.    1.24301     -0.18240855     +0.33092359             
P   0.93           H   26.57          G   0.15           U   7                  
Residuals in seconds of arc
240103 F52  0.1-  0.4-    240103 F52  0.0   0.1+    240105 807  0.1+  0.1-
240103 F52  0.1-  0.3-    240104 807  0.0   0.0     240105 H21  0.0   0.0
240103 F52  0.1-  0.3-    240104 807  0.0   0.0     240105 H21  0.2-  0.1+
240103 F52  0.1-  0.1-    240105 807  0.0   0.1+    240105 H21  0.1-  0.1-
240103 F52  0.1-  0.1+    240105 807  0.0   0.2+    240105 H21  0.2-  0.2+
Ephemeris:
2024 AV                  a,e,i = 0.95, 0.11, 1                   q = 0.8467
Date    TT    R. A. (2000) Decl.     Delta      r    Elong.  Phase     V
2023 12 06    14 10 16.1 -59 15 01   0.03010 0.9648    46.1   132.6    24.9
...
2023 12 21    06 31 24.7 -43 13 31   0.02314 0.9930   112.8    66.0    20.7
...
2023 12 29    05 34 01.3 -17 53 37   0.03168 1.0067   136.7    42.1    20.7
...
2024 01 04    05 17 18.0 -06 33 43   0.04119 1.0161   142.1    36.5    21.2
2024 01 05    05 15 29.1 -05 06 48   0.04295 1.0176   142.2    36.3    21.3
2024 01 06    05 13 52.6 -03 45 40   0.04474 1.0191   142.3    36.2    21.3
...
2024 01 12    05 07 46.6 +02 45 41   0.05622 1.0275   140.5    37.5    21.9
...
2024 01 20    05 06 41.6 +08 39 12   0.07311 1.0373   135.5    41.7    22.6
...
2024 02 04    05 17 42.0 +15 20 34   0.1079  1.0513   125.0    50.1    23.7
M. P. C. Staff               (C) Copyright 2024 MPC           M.P.E.C. 2024-A45
    
    
More information about the Iaude
mailing list